Weather Roundup
Issued by NWS

Home | Current Version | Previous Version | Text Only | Print | Product List | Glossary On
Versions: 1 2 3 4 5 6 7 8 9 10 11 12 13 14 15 16 17 18 19 20 21 22 23 24 25 26 27 28 29 30 31 32 33 34 35 36 37 38 39 40 41 42 43 44 45 46 47 48 49 50
000
NZUS93 KARX 272210
HRRWXR

CURRENT HOURLY OBSERVATIONS ACROSS
MUCH OF THE UPPER MISSISSIPPI VALLEY
NATIONAL WEATHER SERVICE LA CROSSE WI
500 PM CDT SUN MAY 27 2018


...SOUTHEAST MINNESOTA...


CITY           SKY/WX    TMP DP  RH WIND       PRES   REMARKS
ROCHESTER      FAIR      88  62  41 E9        29.87F
ROCHESTER/MAYO FAIR      94  52  24 E6        29.86S HX  91
WINONA         FAIR      95  59  30 E6        29.83S HX  94
AUSTIN         FAIR      93  50  22 SE6       29.84F HX  90
ALBERT LEA     NOT AVBL
DODGE CENTER   FAIR      93  48  21 CALM      29.86S HX  90
PRESTON        FAIR      92  49  22 E8        29.87F
OWATONNA       FAIR      95  57  28 E10G17    29.84S HX  94
FARIBAULT      FAIR      93  54  26 CALM      29.83F HX  91
$$

...ELSEWHERE IN MINNESOTA...


CITY           SKY/WX    TMP DP  RH WIND       PRES   REMARKS
MINNEAPOLIS    PTSUNNY   90  62  39 SE9       29.83F HX  90
INTNL FALLS    FAIR      79  60  52 NE5       29.84S
DULUTH         FAIR      86  58  38 N7        29.83S
RED WING       FAIR      90  55  31 CALM      29.82F
REDWOOD FALLS  CLOUDY    94  58  29 E16G23    29.76F HX  93
MANKATO        FAIR      96  54  24 E17       29.81F HX  94
WORTHINGTON    CLOUDY    99  56  23 SW10      29.82S HX  97
FAIRMONT       MOSUNNY   98  55  23 SE7       29.80F HX  96
$$

...SOUTHWEST WISCONSIN...


CITY           SKY/WX    TMP DP  RH WIND       PRES   REMARKS
LA CROSSE      FAIR      95  58  28 NE3       29.82F HX  94
PRAIRIE DU CHI FAIR      93  57  29 E5        29.84R HX  91
BOSCOBEL       FAIR      94  63  35 N6        29.85R HX  95
LONE ROCK      FAIR      96  60  30 N9        29.83F HX  96
PLATTEVILLE    FAIR      92  67  42 N6        29.87R HX  95
FORT MC COY    FAIR      91  53  27 CALM      29.85F
CAMP DOUGLAS   FAIR      92  58  31 E6        29.84F HX  91
MAUSTON-NEW LI FAIR      94  54  25 NE3       29.84F HX  91
VIROQUA        FAIR      92  50  24 NE5       29.88F
WIS DELLS      FAIR      95  48  20 N7        29.87R HX  91
$$

...ELSEWHERE IN WISCONSIN...


CITY           SKY/WX    TMP DP  RH WIND       PRES   REMARKS
MILWAUKEE      PTSUNNY   83  66  56 CALM      29.85S
MADISON        PTSUNNY   93  66  40 N8        29.84S HX  96
GREEN BAY      FAIR      96  50  20 NW13      29.83F HX  93
EAU CLAIRE     FAIR      92  54  27 S8        29.82S HX  90
BLACK RVR FLS  FAIR      93  49  21 CALM      29.83F HX  90
MEDFORD        FAIR      84  65  52 CALM      29.85R
WAUSAU         FAIR      92  51  24 CALM      29.81F
WIS RAPIDS     FAIR      95  65  37 NW6       29.85F HX  97
MARSHFIELD     FAIR      90  55  30 CALM      29.83F
RICE LAKE      FAIR      88  56  33 SW5       29.86S
$$

...NORTHEAST IOWA...


CITY           SKY/WX    TMP DP  RH WIND       PRES   REMARKS
WATERLOO       FAIR      93  58  30 E7        29.83S HX  92
DUBUQUE        FAIR      92  65  40 NE8       29.86S HX  94
DECORAH        FAIR      91  57  31 E7        29.87S HX  90
MASON CITY     SUNNY     98  55  23 E15       29.84F HX  96
CHARLES CITY   FAIR      93  57  29 E10       29.86S HX  92
OELWEIN        FAIR      93  59  31 E9        29.87R HX  92
$$

...ELSEWHERE IN IOWA...


CITY           SKY/WX    TMP DP  RH WIND       PRES   REMARKS
DES MOINES     CLOUDY    97  64  33 VRB5      29.81F HX  99
IOWA CITY      FAIR      93  66  40 E13G18    29.84S HX  96
FORT DODGE     MOSUNNY   94  60  32 N6        29.81F HX  94
MARSHALLTOWN   MOSUNNY   96  63  33 E3        29.82S HX  97
CEDAR RAPIDS   FAIR      96  57  27 N3        29.83S HX  95
$$

...NORTHERN ILLINOIS...


CITY           SKY/WX    TMP DP  RH WIND       PRES   REMARKS
CHICAGO-OHARE  FAIR      95  63  34 E9        29.84S HX  96
CHICAGO-MIDWAY FAIR      93  64  38 E12       29.84S HX  94
MOLINE         LGT RAIN  79  71  76 N6        29.84R
ROCKFORD       PTSUNNY   95  59  30 W5        29.85S HX  94
PEORIA         FAIR      85  68  56 W7        29.86R
$$

NOTE: "FAIR" INDICATES FEW OR NO CLOUDS BELOW 12,000 FEET WITH NO
SIGNIFICANT WEATHER AND/OR OBSTRUCTIONS TO VISIBILITY. WIND
SPEEDS ARE IN MILES-PER-HOUR.




USA.gov is the U.S. government's official web portal to all federal, state and local government web resources and services.